GW5228 Weather Reports


time (UTC)temp
C
wind
direction
speed
KPH
gust
KPH
rain 1hr
cm
rain 24hr
cm
rain mn
cm
humidity
%
barometer
mb
20260504235058 23 178 17.7 17.7 0.00 0.00 0.00 44 981.5
20260504234558 23 165 19.3 19.3 0.00 0.00 0.00 43 981.4
20260504234058 23 158 19.3 19.3 0.00 0.00 0.00 43 981.4
20260504233558 23 179 30.6 30.6 0.00 0.00 0.00 43 981.5
20260504233058 23 188 17.7 17.7 0.00 0.00 0.00 43 981.4
20260504232558 23 171 22.5 22.5 0.00 0.00 0.00 42 981.4
20260504232058 23 173 19.3 19.3 0.00 0.00 0.00 42 981.3
20260504231558 23 153 25.7 25.7 0.00 0.00 0.00 42 981.4
20260504231058 23 177 12.9 12.9 0.00 0.00 0.00 42 981.5
20260504230558 23 184 24.1 24.1 0.00 0.00 0.00 42 981.4
20260504230058 23 187 25.7 25.7 0.00 0.00 0.00 42 981.4
20260504225558 23 182 20.9 20.9 0.00 0.00 0.00 42 981.4
20260504225058 23 170 14.5 14.5 0.00 0.00 0.00 42 981.3
20260504224558 23 190 24.1 24.1 0.00 0.00 0.00 41 981.5
20260504224058 23 207 22.5 22.5 0.00 0.00 0.00 41 981.5
20260504223558 23 187 14.5 14.5 0.00 0.00 0.00 42 981.6
20260504223058 23 186 22.5 22.5 0.00 0.00 0.00 42 981.5
20260504222558 23 179 22.5 22.5 0.00 0.00 0.00 42 981.6
20260504221558 23 177 32.2 32.2 0.00 0.00 0.00 41 981.7
20260504221058 23 168 27.4 27.4 0.00 0.00 0.00 40 981.6
20260504220558 23 180 25.7 25.7 0.00 0.00 0.00 42 981.8
20260504220058 23 176 20.9 20.9 0.00 0.00 0.00 42 981.7
20260504215558 23 181 19.3 19.3 0.00 0.00 0.00 41 981.8
20260504215058 23 203 33.8 33.8 0.00 0.00 0.00 40 981.8
20260504214558 23 192 24.1 24.1 0.00 0.00 0.00 41 981.8
20260504214058 23 195 24.1 24.1 0.00 0.00 0.00 41 981.9
20260504213558 23 184 24.1 24.1 0.00 0.00 0.00 40 981.7
20260504213058 23 196 37.0 37.0 0.00 0.00 0.00 41 981.7
20260504212558 23 226 14.5 14.5 0.00 0.00 0.00 41 981.7
20260504212058 23 165 29.0 29.0 0.00 0.00 0.00 42 981.7
20260504211558 23 155 19.3 19.3 0.00 0.00 0.00 42 981.8
20260504211058 23 167 16.1 16.1 0.00 0.00 0.00 41 981.8
20260504210558 23 178 16.1 16.1 0.00 0.00 0.00 41 981.9
20260504210058 24 169 27.4 27.4 0.00 0.00 0.00 41 982.0
20260504205558 24 234 12.9 12.9 0.00 0.00 0.00 40 982.0
20260504205058 24 189 16.1 16.1 0.00 0.00 0.00 40 982.0
20260504204558 23 179 27.4 27.4 0.00 0.00 0.00 40 982.0
20260504204058 23 173 30.6 30.6 0.00 0.00 0.00 40 982.1
20260504203558 23 179 16.1 16.1 0.00 0.00 0.00 39 982.3
20260504203058 23 184 30.6 30.6 0.00 0.00 0.00 40 982.3
20260504202558 23 174 33.8 33.8 0.00 0.00 0.00 38 982.3
20260504202058 23 174 37.0 37.0 0.00 0.00 0.00 38 982.4
20260504201558 24 174 37.0 37.0 0.00 0.00 0.00 44 982.4
20260504201058 24 181 20.9 20.9 0.00 0.00 0.00 46 982.6
20260504200558 23 198 27.4 27.4 0.00 0.00 0.00 45 982.6
20260504200058 23 162 19.3 19.3 0.00 0.00 0.00 45 982.7
20260504195558 23 202 17.7 17.7 0.00 0.00 0.00 43 982.9
20260504195058 23 186 17.7 17.7 0.00 0.00 0.00 42 982.7
20260504194558 23 198 27.4 27.4 0.00 0.00 0.00 44 982.9
20260504194058 24 178 30.6 30.6 0.00 0.00 0.00 45 982.9
20260504193558 23 199 6.4 6.4 0.00 0.00 0.00 43 983.1
20260504193058 24 231 16.1 16.1 0.00 0.00 0.00 47 983.1
20260504192558 23 231 20.9 20.9 0.00 0.00 0.00 47 983.1
20260504192058 23 174 24.1 24.1 0.00 0.00 0.00 44 983.2
20260504191558 23 183 20.9 20.9 0.00 0.00 0.00 43 983.2
20260504191058 23 156 20.9 20.9 0.00 0.00 0.00 44 983.4
20260504190558 23 175 17.7 17.7 0.00 0.00 0.00 46 983.5
20260504190058 23 140 16.1 16.1 0.00 0.00 0.00 47 983.5
20260504185558 23 178 9.7 9.7 0.00 0.00 0.00 48 983.5
20260504185058 23 178 9.7 9.7 0.00 0.00 0.00 47 983.6
20260504184558 23 195 16.1 16.1 0.00 0.00 0.00 48 983.6
20260504184058 23 221 8.0 8.0 0.00 0.00 0.00 47 983.5
20260504183558 23 147 6.4 6.4 0.00 0.00 0.00 49 983.7
20260504183058 23 158 17.7 17.7 0.00 0.00 0.00 46 983.7
20260504182558 23 193 16.1 16.1 0.00 0.00 0.00 48 983.7
20260504182058 23 233 25.7 25.7 0.00 0.00 0.00 48 983.8
20260504181558 23 250 8.0 8.0 0.00 0.00 0.00 50 983.9
20260504181058 23 204 22.5 22.5 0.00 0.00 0.00 49 983.8
20260504180558 22 186 9.7 9.7 0.00 0.00 0.00 50 983.9
20260504180059 23 205 20.9 20.9 0.00 0.00 0.00 50 984.0
20260504175558 22 290 8.0 8.0 0.00 0.00 0.00 49 984.0
20260504175058 22 198 19.3 19.3 0.00 0.00 0.00 48 984.2
20260504174558 23 217 22.5 22.5 0.00 0.00 0.00 51 984.1
20260504174058 23 213 17.7 17.7 0.00 0.00 0.00 48 984.2
20260504173558 23 189 12.9 12.9 0.00 0.00 0.00 51 984.3
20260504173058 23 225 27.4 27.4 0.00 0.00 0.00 50 984.3
20260504172558 22 167 9.7 9.7 0.00 0.00 0.00 51 984.4
20260504172058 22 205 19.3 19.3 0.00 0.00 0.00 51 984.5
20260504171558 22 245 14.5 14.5 0.00 0.00 0.00 51 984.6
20260504171058 22 231 22.5 22.5 0.00 0.00 0.00 50 984.7
20260504170558 22 226 16.1 16.1 0.00 0.00 0.00 51 984.7
20260504151058 20 224 20.9 20.9 0.00 0.00 0.00 58 985.6
20260504150558 20 218 29.0 29.0 0.00 0.00 0.00 58 985.7
20260504140841 17 239 19.3 19.3 0.00 0.00 0.00 64 985.9
20260504140341 17 196 17.7 17.7 0.00 0.00 0.00 64 985.8
20260504130759 16 189 27.4 27.4 0.00 0.00 0.00 65 985.6
20260504130300 16 167 17.7 17.7 0.00 0.00 0.00 65 985.6
20260504120300 14 174 29.0 29.0 0.00 0.00 0.00 65 985.0
20260504110300 14 184 22.5 22.5 0.00 0.00 0.00 63 984.9
20260504100300 14 186 22.5 22.5 0.00 0.00 0.00 61 984.7
20260504081759 14 183 22.5 22.5 0.00 0.00 0.00 60 984.8
20260504081259 14 188 30.6 30.6 0.00 0.00 0.00 59 984.7
20260504080800 15 181 24.1 24.1 0.00 0.00 0.00 59 984.6
20260504080259 15 187 24.1 24.1 0.00 0.00 0.00 59 984.6
20260504070259 15 181 37.0 37.0 0.00 0.00 0.00 58 985.4
20260504050300 16 180 24.1 24.1 0.00 0.00 0.00 54 986.2
20260504045759 16 179 22.5 22.5 0.00 0.00 0.00 54 986.2
20260504045259 16 181 24.1 24.1 0.00 0.00 0.00 54 986.2
20260504044800 16 175 24.1 24.1 0.00 0.00 0.00 54 986.1
20260504044300 16 167 25.7 25.7 0.00 0.00 0.00 53 986.3
20260504043759 16 180 24.1 24.1 0.00 0.00 0.00 53 986.4
20260504043259 16 174 24.1 24.1 0.00 0.00 0.00 53 986.3
20260504042759 16 174 24.1 24.1 0.00 0.00 0.00 53 986.5
20260504042259 16 179 24.1 24.1 0.00 0.00 0.00 53 986.4
20260504041759 16 161 22.5 22.5 0.00 0.00 0.00 53 986.4
20260504041259 16 171 24.1 24.1 0.00 0.00 0.00 52 986.4
20260504040759 16 179 24.1 24.1 0.00 0.00 0.00 53 986.5
20260504040300 16 184 24.1 24.1 0.00 0.00 0.00 53 986.5
20260504035800 16 174 22.5 22.5 0.00 0.00 0.00 53 986.6
20260504035259 15 175 22.5 22.5 0.00 0.00 0.00 54 986.6
20260504034759 15 174 19.3 19.3 0.00 0.00 0.00 54 986.7
20260504034259 15 178 24.1 24.1 0.00 0.00 0.00 54 986.7
20260504033759 15 177 17.7 17.7 0.00 0.00 0.00 55 986.6
20260504033300 15 176 19.3 19.3 0.00 0.00 0.00 55 986.7
20260504032759 15 169 19.3 19.3 0.00 0.00 0.00 55 986.6
20260504032300 15 175 19.3 19.3 0.00 0.00 0.00 54 986.8
20260504031759 15 172 20.9 20.9 0.00 0.00 0.00 54 986.8
20260504031259 15 174 17.7 17.7 0.00 0.00 0.00 54 987.0
20260504030800 16 165 16.1 16.1 0.00 0.00 0.00 53 986.8
20260504030259 16 168 16.1 16.1 0.00 0.00 0.00 51 986.9
20260504025759 16 174 17.7 17.7 0.00 0.00 0.00 51 986.9
20260504025300 16 175 16.1 16.1 0.00 0.00 0.00 51 987.0
20260504024759 16 176 14.5 14.5 0.00 0.00 0.00 52 986.9
20260504024300 16 176 11.3 11.3 0.00 0.00 0.00 52 986.8
20260504023759 16 168 16.1 16.1 0.00 0.00 0.00 51 986.8
20260504023259 16 170 14.5 14.5 0.00 0.00 0.00 52 986.9
20260504022800 16 172 14.5 14.5 0.00 0.00 0.00 52 987.0
20260504022300 16 181 14.5 14.5 0.00 0.00 0.00 52 986.9
20260504021759 16 174 12.9 12.9 0.00 0.00 0.00 51 986.9
20260504021300 16 178 19.3 19.3 0.00 0.00 0.00 50 986.8
20260504020759 16 179 17.7 17.7 0.00 0.00 0.00 49 986.8
20260504020259 16 184 17.7 17.7 0.00 0.00 0.00 49 986.8
20260504015759 16 183 14.5 14.5 0.00 0.00 0.00 50 986.7
20260504015259 16 182 14.5 14.5 0.00 0.00 0.00 50 986.7
20260504014759 16 180 14.5 14.5 0.00 0.00 0.00 50 986.7
20260504014300 17 176 14.5 14.5 0.00 0.00 0.00 50 986.5
20260504013800 17 179 16.1 16.1 0.00 0.00 0.00 50 986.5
20260504013259 17 180 17.7 17.7 0.00 0.00 0.00 50 986.4
20260504012759 17 179 17.7 17.7 0.00 0.00 0.00 50 986.4
20260504012259 17 181 14.5 14.5 0.00 0.00 0.00 49 986.4
20260504011759 17 181 16.1 16.1 0.00 0.00 0.00 49 986.5
20260504011259 17 176 14.5 14.5 0.00 0.00 0.00 50 986.4
20260504010800 17 175 14.5 14.5 0.00 0.00 0.00 49 986.4
20260504010259 17 179 11.3 11.3 0.00 0.00 0.00 49 986.4
20260504005759 17 181 12.9 12.9 0.00 0.00 0.00 49 986.4
20260504005300 17 183 16.1 16.1 0.00 0.00 0.00 48 986.3
20260504004759 17 183 14.5 14.5 0.00 0.00 0.00 48 986.4
20260504004259 17 178 12.9 12.9 0.00 0.00 0.00 48 986.3
20260504003800 17 179 11.3 11.3 0.00 0.00 0.00 48 986.3
20260504003300 18 175 11.3 11.3 0.00 0.00 0.00 47 986.2
20260504002759 18 177 11.3 11.3 0.00 0.00 0.00 46 986.3
20260504002300 18 172 12.9 12.9 0.00 0.00 0.00 45 986.4
20260504001759 18 186 9.7 9.7 0.00 0.00 0.00 44 986.4
20260504001300 18 196 9.7 9.7 0.00 0.00 0.00 44 986.4
20260504000800 18 195 9.7 9.7 0.00 0.00 0.00 44 986.5
20260504000300 18 194 8.0 8.0 0.00 0.00 0.00 43 986.5
20260503235759 18 210 8.0 8.0 0.00 0.00 0.00 43 986.7
20260503235259 19 181 11.3 11.3 0.00 0.00 0.00 42 986.8